Flag for Oman Weather past 2 weeks in Salalah, Oman

Now
86 °F

Sunny.


Feels Like: 88 °F
Forecast: 72 / 92 °F
Wind: 3 mph from North

Location: Salalah Airport

Current Time: Apr 21, 2015 at 9:19:30 AM

Latest Report: Apr 21, 2015 at 8:50 AM


Visibility: 10 mi

Pressure: 29.95 "Hg

Humidity: 52%

Dew point: 66 °F

Location of SalalahLocation

Historic Weather in Salalah — Graph

°F

Salalah temperature yesterday

Maximum temperature yesterday: 90 °F (at 2:50 PM)
Minimum temperature yesterday: 73 °F (at 5:50 AM)
Average temperature yesterday: 82 °F

Past Weeks' High & Low Weather Summary

 TemperatureHumidityPressure
High93 °F (Apr 16, 10:50 AM)84% (Apr 7, 9:50 PM)31.75 "Hg (Apr 7, 9:50 PM)
Low73 °F (Apr 15, 5:50 AM)14% (Apr 16, 9:50 AM)29.74 "Hg (Apr 7, 2:50 PM)
Average82 °F62%29.89 "Hg
* Reported Apr 6 9:50 AM — Apr 21 7:50 AM, Salalah, Weather by CustomWeather, © 2015

Note: Actual official high and low records may vary slightly from our data, if they occured in-between our weather recording intervals... More about our weather records

Advertising

Salalah weather history for previous 24 hours

 ConditionsComfort  
Time TempWeatherWind HumidityBarometerVisibility
7:50 AM
Tue, Apr 21
82 °FSunny.2 mph28%29.92 "Hg10 mi
6:50 AM77 °FSunny.2 mph34%29.92 "Hg10 mi
5:50 AM75 °FClear.No wind34%29.89 "Hg10 mi
4:50 AM77 °FClear.5 mph34%29.89 "Hg10 mi
3:50 AM77 °FClear.3 mph42%29.89 "Hg10 mi
2:50 AM75 °FClear.1 mph50%29.89 "Hg10 mi
1:50 AM79 °FClear.3 mph51%29.89 "Hg10 mi
12:50 AM79 °FWarm.No wind51%29.89 "HgN/A
11:50 PM
Mon, Apr 20
81 °FClear.2 mph37%29.89 "Hg10 mi
10:50 PM81 °FClear.No wind70%29.92 "Hg10 mi
9:50 PM82 °FClear.No wind66%29.92 "Hg10 mi
8:50 PM82 °FClear.3 mph70%29.89 "Hg10 mi
7:50 PM84 °FClear.No wind58%29.89 "Hg10 mi
6:50 PM84 °FClear.3 mph58%29.89 "Hg10 mi
4:50 PM90 °FHot.8 mph33%29.83 "HgN/A
3:50 PM90 °FHot.8 mph41%29.83 "HgN/A
2:50 PM90 °FPassing clouds.8 mph41%29.86 "HgN/A
1:50 PM88 °FPassing clouds.14 mph49%29.86 "HgN/A
12:50 PM88 °FSunny.12 mph43%29.89 "Hg10 mi
11:50 AM86 °FSunny.12 mph55%29.92 "Hg10 mi
9:50 AM86 °FWarm.5 mph52%29.92 "HgN/A
Weather by CustomWeather, © 2015

See weather overviewHow to use our weather pages